User: anonymous   Login
Location: Lawrence Hall of Science
(37.8785°N, 122.2415°W)
Time: 03:28:29
(UTC-07:00)
Language:

Cosmos 2098 Rocket - Orbit

View from above orbital plane
View from above orbital plane
View from above satellite
View from above satellite

Ground track
Ground track

The orbit data is extracted from the following two-line orbital elements,

1 20775U 90078B   16176.52153208  .00001791  00000-0  89185-4 0  9995
2 20775  82.9293 340.8988 0597756   2.5087 357.8864 14.28530211297665
Epoch (UTC): 24 June 2016 12:31:00
Eccentricity: 0.0597756
inclination: 82.9293°
perigee height: 368 km
apogee height: 1225 km
right ascension of ascending node: 340.8988°
argument of perigee: 2.5087°
revolutions per day: 14.28530211
mean anomaly at epoch: 357.8864°
orbit number at epoch: 29766

The dashed part of the orbit path shows where the satellite is in the earth's shadow,  

DLR